KF5CFW Weather Reports


time (UTC)temp
C
wind
direction
speed
KPH
gust
KPH
rain 1hr
cm
rain 24hr
cm
rain mn
cm
humidity
%
barometer
mb
20260505170038 28 184 0.0 3.2 0.00 0.00 0.00 56 1003.9
20260505164537 28 155 0.0 6.4 0.00 0.00 0.00 56 1004.0
20260505163031 28 214 0.0 3.2 0.00 0.00 0.00 52 1003.8
20260505161522 27 221 0.0 4.8 0.00 0.00 0.00 46 1003.7
20260505153010 25 210 0.0 4.8 0.00 0.00 0.00 40 1003.7
20260505151506 25 256 0.0 3.2 0.00 0.00 0.00 28 1003.9
20260505124546 21 183 0.0 4.8 0.00 0.00 0.00 1 1003.4
20260505123056 21 184 0.0 3.2 0.00 0.00 0.00 1 1003.1
20260505121545 21 352 0.0 1.6 0.00 0.00 0.00 1 1003.0
20260505120054 21 63 0.0 3.2 0.00 0.00 0.00 1 1002.7
20260505114540 21 156 0.0 4.8 0.00 0.00 0.00 1 1003.0
20260505113035 21 225 0.0 3.2 0.00 0.00 0.00 1 1002.7
20260505111533 21 193 0.0 1.6 0.00 0.00 0.00 1 1002.8
20260505101513 21 179 0.0 3.2 0.00 0.00 0.00 1 1002.6
20260505100010 21 235 0.0 4.8 0.00 0.00 0.00 1 1002.9
20260505094506 21 131 0.0 4.8 0.00 0.00 0.00 1 1002.9
20260505093003 21 173 0.0 1.6 0.00 0.00 0.00 1 1003.0
20260505091619 21 207 0.0 4.8 0.00 0.00 0.00 1 1003.3
20260505090118 21 158 0.0 4.8 0.00 0.00 0.00 1 1003.4
20260505084602 21 166 0.0 6.4 0.00 0.00 0.00 1 1003.4
20260505083059 21 151 0.0 4.8 0.00 0.00 0.00 1 1003.4
20260505081554 21 160 0.0 6.4 0.00 0.00 0.00 5 1003.4
20260505080052 22 165 0.0 4.8 0.00 0.00 0.00 9 1003.5
20260505074533 22 139 0.0 4.8 0.00 0.00 0.00 13 1003.6
20260505073044 22 155 0.0 3.2 0.00 0.00 0.00 17 1003.7
20260505071541 22 156 0.0 3.2 0.00 0.00 0.00 21 1004.1
20260505070036 22 164 0.0 3.2 0.00 0.00 0.00 25 1004.3
20260505064524 22 154 0.0 4.8 0.00 0.00 0.00 30 1004.5
20260505063027 22 148 0.0 6.4 0.00 0.00 0.00 35 1004.6
20260505061527 22 163 0.0 3.2 0.00 0.00 0.00 41 1004.6
20260505060033 23 145 0.0 3.2 0.00 0.00 0.00 45 1004.6
20260505054518 23 160 0.0 6.4 0.00 0.00 0.00 48 1004.3
20260505053013 23 188 0.0 3.2 0.00 0.00 0.00 51 1004.4
20260505051511 23 148 0.0 4.8 0.00 0.00 0.00 52 1004.7
20260505041508 23 141 0.0 8.0 0.00 0.00 0.00 53 1005.0
20260505040006 23 160 0.0 8.0 0.00 0.00 0.00 54 1004.7
20260505034505 23 160 0.0 1.6 0.00 0.00 0.00 54 1004.9
20260505033005 23 148 0.0 6.4 0.00 0.00 0.00 55 1004.8
20260505031504 23 168 0.0 8.0 0.00 0.00 0.00 55 1004.8
20260505030004 23 176 0.0 4.8 0.00 0.00 0.00 55 1005.0
20260505024503 23 145 0.0 4.8 0.00 0.00 0.00 56 1005.0
20260505023003 24 148 0.0 3.2 0.00 0.00 0.00 57 1004.8
20260505021502 24 150 0.0 4.8 0.00 0.00 0.00 57 1004.6
20260505020002 24 184 0.0 3.2 0.00 0.00 0.00 58 1004.6
20260505014503 24 164 0.0 3.2 0.00 0.00 0.00 58 1004.5
20260505013100 24 141 0.0 3.2 0.00 0.00 0.00 59 1004.7
20260505011600 25 192 0.0 4.8 0.00 0.00 0.00 59 1004.7
20260505010104 25 72 0.0 3.2 0.00 0.00 0.00 59 1004.7
20260505004559 25 148 0.0 4.8 0.00 0.00 0.00 59 1004.7
20260505003104 25 158 0.0 3.2 0.00 0.00 0.00 59 1004.8
20260505001558 25 160 0.0 6.4 0.00 0.00 0.00 59 1004.9
20260505000058 25 217 0.0 8.0 0.00 0.00 0.00 59 1005.0
20260504234555 25 148 0.0 9.7 0.00 0.00 0.00 59 1005.1
20260504233057 25 150 0.0 8.0 0.00 0.00 0.00 59 1005.2
20260504231552 26 207 0.0 4.8 0.00 0.00 0.00 59 1005.3
20260504230052 26 170 0.0 6.4 0.00 0.00 0.00 59 1005.2
20260504224550 26 242 0.0 6.4 0.00 0.00 0.00 58 1005.8
20260504223102 26 155 0.0 6.4 0.00 0.00 0.00 58 1005.7
20260504221548 27 187 0.0 6.4 0.00 0.00 0.00 56 1005.8
20260504220047 27 151 0.0 11.3 0.00 0.00 0.00 56 1005.8
20260504214545 28 170 0.0 4.8 0.00 0.00 0.00 55 1005.9
20260504213044 28 340 0.0 8.0 0.00 0.00 0.00 55 1006.2
20260504211611 29 155 0.0 4.8 0.00 0.00 0.00 54 1006.3
20260504210045 29 60 1.6 6.4 0.00 0.00 0.00 52 1006.5
20260504204537 29 215 0.0 4.8 0.00 0.00 0.00 52 1007.0
20260504203034 28 191 1.6 8.0 0.00 0.00 0.00 53 1007.1
20260504201531 28 143 0.0 4.8 0.00 0.00 0.00 53 1007.6
20260504200028 28 165 0.0 3.2 0.00 0.00 0.00 53 1007.9
20260504194527 28 160 0.0 4.8 0.00 0.00 0.00 53 1008.3
20260504193027 28 186 0.0 6.4 0.00 0.00 0.00 51 1008.5
20260504191525 28 197 0.0 6.4 0.00 0.00 0.00 53 1008.7
20260504190020 28 159 0.0 4.8 0.00 0.00 0.00 51 1009.0
20260504184521 28 184 0.0 4.8 0.00 0.00 0.00 53 1009.3
20260504183015 27 131 0.0 6.4 0.00 0.00 0.00 53 1009.4
20260504181512 27 160 0.0 4.8 0.00 0.00 0.00 53 1009.7
20260504180012 27 200 0.0 3.2 0.00 0.00 0.00 52 1009.9
20260504174507 27 194 0.0 6.4 0.00 0.00 0.00 53 1010.1
20260504173005 26 197 1.6 6.4 0.00 0.00 0.00 52 1010.2
20260504171501 26 148 0.0 4.8 0.00 0.00 0.00 54 1010.5